Weather History for Estherville, IA

Change the Weather History Date:

Monday, March 25, 2013

  Actual Average Record
Temperature  
Mean Temperature 28 °F 37 °F  
Max Temperature 34 °F 46 °F 82 °F (1967)
Min Temperature 22 °F 28 °F -2 °F (1974)
Degree Days  
Heating Degree Days 37 28  
Month to date heating degree days 1026 841  
Since 1 July heating degree days 6665 6756  
Cooling Degree Days 0 0  
Month to date cooling degree days 0 0  
Year to date cooling degree days 0 0  
Moisture  
Dew Point 21 °F    
Average Humidity 75    
Maximum Humidity 88    
Minimum Humidity 61    
Precipitation  
Precipitation T in 0.07 in 0.60 in (1987)
Month to date precipitation 1.05 1.13  
Sea Level Pressure  
Sea Level Pressure 30.15 in    
Wind  
Wind Speed 18 mph (NNW)    
Max Wind Speed 23 mph    
Max Gust Speed 29 mph    
Visibility 8 miles    
Events Snow    
T = Trace of Precipitation, MM = Missing Value Source: NWS Daily Summary

Daily Weather History Graph

Daily Weather History Graph

Search for Another Location

Airport:

Trip Planner

Search our weather history database for the weather conditions in past years. The results will help you decide how hot, cold, wet, or windy it might be!

Date:

Astronomy

Mar. 25, 2013 Rise Set
Actual Time 7:12 AM CDT 7:37 PM CDT
Civil Twilight 6:44 AM CDT 8:06 PM CDT
Nautical Twilight 6:10 AM CDT 8:40 PM CDT
Astronomical Twilight 5:35 AM CDT 9:14 PM CDT
Moon 6:08 PM CDT (3/25) 5:59 AM CDT (3/25)
Length of Visible Light 13h 22m
Length of Day
12h 24m
Waxing Gibbous, 96% of the Moon is Illuminated
Mar 25
Waxing Gibbous
Mar 27
Full
Apr 2
Last Quarter
Apr 10
New
Apr 18
First Quarter

Hourly Weather History & Observations

Time (CDT) Temp. Windchill Dew Point Humidity Pressure Visibility Wind Dir Wind Speed Gust Speed Precip Events Conditions
12:14 AM 26.6 °F 13.4 °F 24.8 °F 93% 30.02 in 2.0 mi North 18.4 mph - 0.00 in Snow Light Snow
12:28 AM 26.6 °F 13.8 °F 23.0 °F 86% 30.02 in 4.0 mi NNW 17.3 mph - 0.00 in Snow Light Snow
12:52 AM 26.1 °F 12.3 °F 21.9 °F 84% 30.08 in 9.0 mi NNW 19.6 mph - 0.00 in   Overcast
1:52 AM 25.0 °F 12.6 °F 21.0 °F 85% 30.09 in 4.0 mi NNW 15.0 mph - 0.00 in Snow Light Snow
2:03 AM 24.8 °F 11.5 °F 21.2 °F 86% 30.03 in 2.5 mi NNW 17.3 mph - 0.00 in Snow Light Snow
2:15 AM 24.8 °F 11.1 °F 21.2 °F 86% 30.03 in 3.0 mi NNW 18.4 mph - 0.00 in Snow Light Snow
2:25 AM 24.8 °F 11.5 °F 21.2 °F 86% 30.03 in 2.0 mi NNW 17.3 mph - 0.00 in Snow Light Snow
2:43 AM 24.8 °F 11.9 °F 21.2 °F 86% 30.03 in 5.0 mi NNW 16.1 mph - 0.00 in Snow Light Snow
2:52 AM 24.1 °F 11.0 °F 21.0 °F 88% 30.08 in 5.0 mi NNW 16.1 mph - 0.00 in Snow Light Snow
3:32 AM 24.8 °F 12.4 °F 21.2 °F 86% 30.03 in 8.0 mi NNW 15.0 mph - 0.00 in   Overcast
3:52 AM 25.0 °F 12.6 °F 21.0 °F 85% 30.08 in 7.0 mi NNW 15.0 mph - 0.00 in Snow Light Snow
4:27 AM 24.8 °F 12.4 °F 21.2 °F 86% 30.03 in 6.0 mi NNW 15.0 mph - 0.00 in Snow Light Snow
4:52 AM 25.0 °F 12.6 °F 21.0 °F 85% 30.09 in 10.0 mi NNW 15.0 mph - 0.00 in   Overcast
5:16 AM 24.8 °F 12.9 °F 21.2 °F 86% 30.04 in 10.0 mi NNW 13.8 mph - N/A   Overcast
5:52 AM 25.0 °F 12.2 °F 21.0 °F 85% 30.10 in 6.0 mi NNW 16.1 mph - 0.00 in Snow Light Snow
6:52 AM 24.1 °F 11.5 °F 19.9 °F 84% 30.12 in 10.0 mi NNW 15.0 mph - 0.00 in   Clear
7:52 AM 23.0 °F 10.1 °F 19.9 °F 88% 30.14 in 10.0 mi NNW 15.0 mph - N/A   Clear
8:52 AM 24.1 °F 11.0 °F 19.0 °F 81% 30.17 in 10.0 mi NNW 16.1 mph - N/A   Clear
9:52 AM 26.1 °F 12.3 °F 19.0 °F 75% 30.19 in 10.0 mi North 19.6 mph - N/A   Clear
10:52 AM 27.0 °F 13.5 °F 19.9 °F 75% 30.20 in 10.0 mi North 19.6 mph - N/A   Clear
11:52 AM 28.9 °F 15.1 °F 19.9 °F 69% 30.21 in 10.0 mi North 23.0 mph - N/A   Clear
12:52 PM 30.9 °F 19.1 °F 21.9 °F 69% 30.21 in 10.0 mi NNW 18.4 mph 24.2 mph N/A   Partly Cloudy
1:52 PM 33.1 °F 21.9 °F 23.0 °F 66% 30.21 in 10.0 mi NNW 18.4 mph 27.6 mph N/A   Partly Cloudy
2:52 PM 34.0 °F 23.0 °F 23.0 °F 64% 30.20 in 10.0 mi North 18.4 mph 28.8 mph N/A   Partly Cloudy
3:52 PM 33.1 °F 21.5 °F 21.0 °F 61% 30.20 in 10.0 mi North 19.6 mph 27.6 mph N/A   Scattered Clouds
4:52 PM 33.1 °F 22.2 °F 21.0 °F 61% 30.21 in 10.0 mi North 17.3 mph 25.3 mph N/A   Mostly Cloudy
5:52 PM 32.0 °F 20.8 °F 21.0 °F 64% 30.22 in 10.0 mi NNW 17.3 mph 25.3 mph N/A   Mostly Cloudy
6:52 PM 30.9 °F 18.7 °F 21.0 °F 67% 30.25 in 10.0 mi NNW 19.6 mph 25.3 mph N/A   Mostly Cloudy
7:05 PM 30.2 °F 18.1 °F 21.2 °F 69% 30.20 in 10.0 mi NNW 18.4 mph 25.3 mph N/A   Mostly Cloudy
7:17 PM 30.2 °F 17.8 °F 21.2 °F 69% 30.21 in 10.0 mi NNW 19.6 mph 24.2 mph N/A   Scattered Clouds
7:52 PM 28.9 °F 16.9 °F 19.9 °F 69% 30.28 in 10.0 mi NNW 17.3 mph 24.2 mph N/A   Clear
8:52 PM 27.0 °F 13.5 °F 19.0 °F 72% 30.29 in 10.0 mi NNW 19.6 mph - N/A   Clear
9:52 PM 25.0 °F 9.9 °F 18.0 °F 75% 30.32 in 10.0 mi NNW 23.0 mph 28.8 mph N/A   Clear
10:52 PM 24.1 °F 10.6 °F 17.1 °F 75% 30.32 in 10.0 mi NNW 17.3 mph - N/A   Clear
11:52 PM 23.0 °F 10.1 °F 16.0 °F 74% 30.33 in 10.0 mi NNW 15.0 mph - N/A   Clear